Waarnemingen

Advertentie
Mijn weer
Jarnasklubb, Zweden (2284): temperatuur & dauwpunt: 15.05.2019 00:00:00 - 21.05.2019 00:00:00 (CEST)Jarnasklubb, Zweden (2284): windsnelheid & windstoten: 15.05.2019 00:00:00 - 21.05.2019 00:00:00 (CEST)Jarnasklubb, Zweden (2284): windrichting: 15.05.2019 00:00:00 - 21.05.2019 00:00:00 (CEST)Jarnasklubb, Zweden (2284): luchtdruk: 15.05.2019 00:00:00 - 21.05.2019 00:00:00 (CEST)Jarnasklubb, Zweden (2284): zicht: 15.05.2019 00:00:00 - 21.05.2019 00:00:00 (CEST)Jarnasklubb, Zweden (2284): neerslag: 15.05.2019 00:00:00 - 21.05.2019 00:00:00 (CEST)
Datum & Tijd tt [°C] td [°C] ff [km/u] ff [kn] fx [km/u] fx [kn] dd ppp [hPa] vv [km] rr [mm]
21.05.2019 00:00:00 12,3 11,4 5 3 10 5 O 1013,8 25 0,0
20.05.2019 23:00:00 11,8 10,4 0 0 4 2 N 1013,8 28 0,0
20.05.2019 22:00:00 13,0 11,2 0 0 7 4 N 1013,6 42 0,0
20.05.2019 21:00:00 13,8 10,6 3 2 5 3 O 1013,3 50 0,0
20.05.2019 20:00:00 14,8 10,0 2 1 4 2 ZZW 1013,3 50 0,0
20.05.2019 19:00:00 14,2 9,8 3 2 5 3 Z 1013,3 48 0,0
20.05.2019 18:00:00 13,9 9,7 2 1 9 5 OZO 1013,6 46 0,0
20.05.2019 17:00:00 14,3 10,3 10 5 18 10 ZO 1013,6 47 0,0
20.05.2019 16:00:00 15,7 11,5 11 6 13 7 ZO 1013,8 46 0,0
20.05.2019 15:00:00 16,0 11,2 8 4 10 6 ZZO 1014,0 43 0,0
20.05.2019 14:00:00 15,2 10,6 8 4 10 6 ZO 1014,3 44 0,0
20.05.2019 13:00:00 15,4 10,2 7 4 10 5 Z 1014,4 38 0,0
20.05.2019 12:00:00 17,0 8,9 6 4 10 6 ZZW 1014,5 47 0,0
20.05.2019 11:00:00 14,3 8,5 6 3 12 7 ZZW 1014,7 38 0,0
20.05.2019 10:00:00 12,8 8,5 7 4 10 6 ZZO 1014,8 45 0,0
20.05.2019 09:00:00 14,1 7,6 8 4 13 7 ZW 1014,7 44 0,0
20.05.2019 08:00:00 12,2 8,5 9 5 14 7 WZW 1014,8 40 0,0
20.05.2019 07:00:00 11,6 9,0 9 5 13 7 ZW 1014,8 45 0,0
20.05.2019 06:00:00 10,6 8,5 4 2 10 6 ZW 1014,7 50 0,0
20.05.2019 05:00:00 10,8 8,9 7 4 12 6 ZW 1014,8 50 0,0
20.05.2019 04:00:00 11,0 8,6 3 1 10 5 Z 1014,7 50 0,0
20.05.2019 03:00:00 11,0 8,2 0 0 6 3 N 1014,8 50 0,0
20.05.2019 02:00:00 11,4 8,1 6 3 8 5 NO 1015,0 50 0,0
20.05.2019 01:00:00 11,9 7,4 3 1 8 4 O 1015,4 50 0,0
20.05.2019 00:00:00 12,3 5,5 4 2 11 6 NNO 1015,4 50 0,0
19.05.2019 23:00:00 12,5 7,4 6 4 10 5 O 1015,4 50 0,0
19.05.2019 22:00:00 13,1 6,7 5 3 11 6 NO 1014,8 47 0,0
19.05.2019 21:00:00 12,9 6,9 9 5 13 7 N 1014,6 47 0,0
19.05.2019 20:00:00 12,9 6,5 8 4 12 6 O 1015,3 50 0,1
19.05.2019 19:00:00 13,4 5,1 9 5 18 10 O 1015,3 50 0,0
19.05.2019 18:00:00 14,8 6,6 7 4 15 8 O 1015,5 50 0,0
19.05.2019 17:00:00 15,0 7,3 5 3 8 4 ONO 1015,8 50 0,0
19.05.2019 16:00:00 13,4 6,7 4 2 8 5 OZO 1016,4 50 0,0
19.05.2019 15:00:00 13,7 7,0 5 3 14 7 O 1016,5 50 0,0
19.05.2019 14:00:00 14,6 6,2 11 6 19 10 O 1016,8 50 0,0
19.05.2019 13:00:00 14,0 6,1 14 7 21 11 O 1016,8 45 0,0
19.05.2019 12:00:00 14,9 5,4 13 7 18 10 O 1016,8 49 0,0
19.05.2019 11:00:00 14,6 6,9 10 5 12 7 O 1017,0 48 0,0
19.05.2019 10:00:00 14,8 7,4 6 4 11 6 O 1017,0 49 0,0
19.05.2019 09:00:00 12,4 6,2 8 4 10 6 O 1017,1 49 0,0
19.05.2019 08:00:00 11,1 6,4 6 4 10 5 O 1017,4 47 0,0
19.05.2019 07:00:00 10,1 7,3 9 5 13 7 ZO 1017,6 46 0,0
19.05.2019 06:00:00 10,8 4,7 11 6 14 8 NNW 1017,6 50 0,0
19.05.2019 05:00:00 7,6 5,2 4 2 9 5 NW 1017,8 50 0,0
19.05.2019 04:00:00 5,8 4,6 3 2 8 4 NNW 1018,1 50 0,0
19.05.2019 03:00:00 6,0 4,5 6 4 12 6 NW 1018,4 50 0,0
19.05.2019 02:00:00 7,6 3,3 4 2 8 4 W 1018,6 50 0,0
19.05.2019 01:00:00 7,4 4,0 7 4 11 6 NW 1018,5 50 0,0
19.05.2019 00:00:00 7,8 3,6 8 4 11 6 W 1018,7 50 0,0
18.05.2019 23:00:00 8,9 4,1 6 4 9 5 ZW 1018,7 50 0,0
18.05.2019 22:00:00 10,5 5,1 6 4 11 6 ZW 1018,8 50 0,0
18.05.2019 21:00:00 11,1 5,2 5 3 9 5 ZZW 1018,7 50 0,0
18.05.2019 20:00:00 11,4 5,7 4 2 10 5 ZZW 1019,3 50 0,0
18.05.2019 19:00:00 13,8 3,8 8 5 11 6 ZW 1019,7 50 0,0
18.05.2019 18:00:00 14,9 3,4 6 4 15 8 WZW 1020,1 50 0,0
18.05.2019 17:00:00 13,0 7,0 12 6 18 10 ZW 1020,8 48 0,0
18.05.2019 16:00:00 13,1 5,3 4 2 12 6 Z 1021,1 50 0,0
18.05.2019 15:00:00 11,9 5,1 9 5 11 6 OZO 1021,4 47 0,0
18.05.2019 14:00:00 12,1 5,0 8 4 14 8 OZO 1022,0 38 0,0
18.05.2019 13:00:00 11,0 4,7 9 5 16 8 OZO 1022,6 47 0,0
18.05.2019 12:00:00 11,1 4,1 13 7 18 10 O 1023,0 43 0,0
18.05.2019 11:00:00 12,7 4,4 13 7 22 12 O 1023,1 44 0,0
18.05.2019 10:00:00 12,6 3,0 11 6 17 9 O 1023,4 50 0,0
18.05.2019 09:00:00 13,0 3,1 14 8 17 9 O 1023,6 50 0,0
18.05.2019 08:00:00 13,0 3,9 9 5 16 9 ONO 1023,9 50 0,0
18.05.2019 07:00:00 12,3 4,8 7 4 13 7 NO 1023,9 50 0,0
18.05.2019 06:00:00 8,4 5,5 5 3 11 6 N 1024,4 50 0,0
18.05.2019 05:00:00 5,8 4,9 7 4 11 6 N 1024,6 50 0,0
18.05.2019 04:00:00 5,5 4,8 6 3 10 5 N 1024,9 50 0,0
18.05.2019 03:00:00 5,9 5,0 7 4 11 6 NNO 1024,8 50 0,0
18.05.2019 02:00:00 5,8 4,8 5 3 12 6 NNO 1024,9 50 0,0
18.05.2019 01:00:00 7,7 5,5 8 4 12 6 ONO 1025,0 50 0,0
18.05.2019 00:00:00 7,5 4,5 3 2 11 6 ONO 1024,9 50 0,0
17.05.2019 23:00:00 7,2 5,5 8 4 9 5 NNO 1025,0 50 0,0
17.05.2019 22:00:00 8,5 6,0 5 3 6 4 NO 1025,2 50 0,0
17.05.2019 21:00:00 9,6 5,6 0 0 5 3 N 1025,1 50 0,0
17.05.2019 20:00:00 11,1 5,2 0 0 13 7 N 1025,3 50 0,0
17.05.2019 19:00:00 11,8 4,8 10 5 19 11 WZW 1025,7 50 0,0
17.05.2019 18:00:00 12,2 4,9 13 7 20 11 ZW 1026,1 50 0,0
17.05.2019 17:00:00 12,6 4,3 11 6 14 8 ZW 1026,4 47 0,0
17.05.2019 16:00:00 12,9 4,1 11 6 14 8 ZW 1026,7 46 0,0
17.05.2019 15:00:00 12,6 3,3 10 5 16 9 ZW 1027,0 48 0,0
17.05.2019 14:00:00 12,1 4,8 13 7 19 10 ZW 1027,5 48 0,0
17.05.2019 13:00:00 11,8 5,4 16 9 22 12 ZW 1028,0 49 0,0
17.05.2019 12:00:00 11,6 5,7 15 8 20 11 ZW 1028,5 50 0,0
17.05.2019 11:00:00 10,4 6,0 14 7 19 10 ZW 1028,9 50 0,0
17.05.2019 10:00:00 10,6 5,4 15 8 18 10 ZW 1029,0 50 0,0
17.05.2019 09:00:00 9,8 5,2 8 5 11 6 ZW 1028,8 50 0,0
17.05.2019 08:00:00 9,1 4,9 5 3 9 5 ZW 1028,8 50 0,0
17.05.2019 07:00:00 9,2 5,6 0 0 5 3 N 1028,8 50 0,0
17.05.2019 06:00:00 7,5 5,5 3 2 8 4 NNW 1028,6 50 0,0
17.05.2019 05:00:00 4,7 4,3 4 2 7 4 NW 1028,5 50 0,0
17.05.2019 04:00:00 3,5 3,1 3 2 4 2 WNW 1028,6 50 0,0
17.05.2019 03:00:00 4,6 4,3 0 0 3 2 N 1028,6 50 0,0
17.05.2019 02:00:00 3,8 3,2 0 0 3 2 N 1028,6 50 0,0
17.05.2019 01:00:00 5,0 4,1 0 0 6 3 N 1028,8 50 0,0
17.05.2019 00:00:00 5,1 4,2 4 2 7 4 O 1028,9 50 0,0
16.05.2019 23:00:00 6,0 4,6 0 0 6 4 N 1028,6 50 0,0
16.05.2019 22:00:00 7,4 4,9 3 2 11 6 W 1028,4 50 0,0
16.05.2019 21:00:00 8,1 5,2 9 5 15 8 WZW 1028,2 50 0,0
16.05.2019 20:00:00 8,3 5,4 9 5 16 8 ZW 1028,1 50 0,0
16.05.2019 19:00:00 9,2 5,4 14 8 17 9 ZW 1028,1 50 0,0
16.05.2019 18:00:00 10,2 5,2 14 7 16 9 ZW 1028,2 50 0,0
16.05.2019 17:00:00 10,1 5,1 12 7 16 8 ZW 1028,5 48 0,0
16.05.2019 16:00:00 10,1 5,1 11 6 18 10 ZW 1028,8 47 0,0
16.05.2019 15:00:00 9,7 5,1 10 5 18 10 ZZW 1029,1 45 0,0
16.05.2019 14:00:00 10,8 4,3 13 7 20 11 ZZW 1029,2 44 0,0
16.05.2019 13:00:00 10,2 5,4 13 7 20 11 ZZW 1029,4 41 0,0
16.05.2019 12:00:00 10,2 5,2 17 9 22 12 Z 1029,3 43 0,0
16.05.2019 11:00:00 11,3 5,0 17 9 22 12 Z 1029,4 45 0,0
16.05.2019 10:00:00 14,0 2,2 10 6 19 11 WNW 1029,5 48 0,0
16.05.2019 09:00:00 13,1 3,5 8 4 16 9 NW 1029,7 44 0,0
16.05.2019 08:00:00 10,8 3,6 8 4 19 10 NW 1029,6 50 0,0
16.05.2019 07:00:00 8,7 3,1 8 5 19 11 NW 1029,5 50 0,0
16.05.2019 06:00:00 7,9 3,4 11 6 23 13 NW 1029,5 50 0,0
16.05.2019 05:00:00 7,3 3,3 15 8 21 12 NW 1029,5 50 0,0
16.05.2019 04:00:00 7,1 3,2 10 6 18 10 WNW 1029,5 50 0,0
16.05.2019 03:00:00 7,5 3,2 9 5 17 9 WNW 1029,5 50 0,0
16.05.2019 02:00:00 6,6 3,9 9 5 13 7 W 1029,3 50 0,0
16.05.2019 01:00:00 5,2 3,5 5 3 10 6 W 1029,1 50 0,0
16.05.2019 00:00:00 6,7 4,0 8 4 13 7 W 1029,3 50 0,0
15.05.2019 23:00:00 6,8 4,5 7 4 19 10 W 1029,2 50 0,0
15.05.2019 22:00:00 6,9 4,9 16 8 27 14 WZW 1029,0 50 0,0
15.05.2019 21:00:00 7,5 4,6 19 11 26 14 ZZW 1029,1 50 0,0
15.05.2019 20:00:00 7,5 4,8 13 7 24 13 ZW 1029,2 50 0,0
15.05.2019 19:00:00 8,1 4,9 19 10 28 15 ZW 1029,2 50 0,0
15.05.2019 18:00:00 9,0 5,0 21 11 29 16 ZW 1029,3 46 0,0
15.05.2019 17:00:00 10,0 5,0 20 11 28 15 ZZW 1029,5 49 0,0
15.05.2019 16:00:00 10,0 5,0 18 10 28 15 ZZW 1029,8 40 0,0
15.05.2019 15:00:00 10,4 4,7 21 11 27 15 ZZW 1030,0 46 0,0
15.05.2019 14:00:00 9,7 4,9 14 7 19 10 ZW 1030,3 38 0,0
15.05.2019 13:00:00 9,5 4,5 16 8 22 12 ZW 1030,4 43 0,0
15.05.2019 12:00:00 10,1 4,5 15 8 22 12 ZZW 1030,5 40 0,0
15.05.2019 11:00:00 9,4 4,4 14 7 18 10 ZZW 1030,4 46 0,0
15.05.2019 10:00:00 9,1 4,7 10 5 13 7 ZZW 1030,4 49 0,0
15.05.2019 09:00:00 8,9 3,9 7 4 13 7 ZW 1030,2 49 0,0
15.05.2019 08:00:00 10,0 3,3 5 3 9 5 NNW 1029,9 45 0,0
15.05.2019 07:00:00 8,5 2,9 4 2 10 5 WNW 1029,8 41 0,0
15.05.2019 06:00:00 6,7 3,0 4 2 11 6 WNW 1029,6 50 0,0
15.05.2019 05:00:00 3,4 2,1 4 2 10 5 NW 1029,4 50 0,0
15.05.2019 04:00:00 3,9 2,4 4 2 10 5 W 1029,3 50 0,0
15.05.2019 03:00:00 4,1 2,0 7 4 11 6 WNW 1029,2 50 0,0
15.05.2019 02:00:00 5,1 2,5 8 5 16 9 W 1029,2 50 0,0
15.05.2019 01:00:00 6,2 2,5 10 5 16 9 W 1029,0 50 0,0
15.05.2019 00:00:00 6,0 2,1 9 5 13 7 W 1028,7 50 0,0

tt = temperatuur
td = dauwpunt
ff = windsnelheid
fx = windstoten
dd = windrichting
ppp = luchtdruk
vv = zicht
rr = neerslag

Weerstations in de omgeving